Waarnemingen

Advertentie
Mijn weer
Elsenborn, België (6496): temperatuur & dauwpunt: 19.09.2020 17:00:00 - 25.09.2020 17:00:00 (CEST)Elsenborn, België (6496): windsnelheid & windstoten: 19.09.2020 17:00:00 - 25.09.2020 17:00:00 (CEST)Elsenborn, België (6496): windrichting: 19.09.2020 17:00:00 - 25.09.2020 17:00:00 (CEST)Elsenborn, België (6496): luchtdruk: 19.09.2020 17:00:00 - 25.09.2020 17:00:00 (CEST)Elsenborn, België (6496): zicht: 19.09.2020 17:00:00 - 25.09.2020 17:00:00 (CEST)
Datum & Tijd tt [°C] td [°C] ff [km/u] ff [kn] fx [km/u] fx [kn] dd ppp [hPa] vv [km]
25.09.2020 17:00:00 8,3 5,8 11 6 - - W 998,4 20
25.09.2020 16:00:00 9,2 7,3 11 6 25 14 ZW 997,6 20
25.09.2020 15:00:00 8,9 6,9 7 4 32 18 N 997,3 20
25.09.2020 14:00:00 8,5 5,4 14 8 - - ZZW 997,3 20
25.09.2020 13:00:00 8,4 5,7 16 9 36 19 ZW 997,5 10
25.09.2020 12:00:00 7,3 5,5 18 10 36 19 ZW 998,1 20
25.09.2020 11:00:00 7,0 5,4 14 8 - - ZZW 998,2 20
25.09.2020 10:00:00 6,2 5,3 14 8 32 18 ZZW 998,0 18
25.09.2020 09:00:00 5,8 5,1 11 6 25 14 ZZW 997,9 20
25.09.2020 08:00:00 5,1 4,3 11 6 - - Z 998,7 20
25.09.2020 07:00:00 5,2 4,2 18 10 29 16 ZW 998,8 20
25.09.2020 06:00:00 5,9 4,4 14 8 29 16 ZZW 998,9 20
25.09.2020 05:00:00 7,1 6,3 11 6 - - ZW 998,1 20
25.09.2020 04:00:00 7,7 6,4 18 10 29 16 ZW 998,4 20
25.09.2020 03:00:00 7,9 7,1 14 8 32 18 ZZW 998,2 20
25.09.2020 02:00:00 8,1 7,1 18 10 - - ZW 998,6 20
25.09.2020 01:00:00 10,3 9,3 24 13 36 19 ZW 997,6 10
25.09.2020 00:00:00 11,3 10,5 11 6 32 18 ZZW 997,6 20
24.09.2020 23:00:00 11,3 10,7 14 8 - - Z 998,4 19
24.09.2020 22:00:00 11,3 10,9 8 4 25 14 ZZW 999,4 7
24.09.2020 21:00:00 12,6 9,6 14 8 29 16 Z 999,3 20
24.09.2020 20:00:00 13,1 6,9 7 4 - - Z 1000,0 20
24.09.2020 19:00:00 13,5 6,5 7 4 22 12 Z 1000,7 20
24.09.2020 18:00:00 14,0 5,8 14 8 32 18 ZZW 1001,6 20
24.09.2020 17:00:00 14,3 5,5 14 8 - - ZZW 1002,1 20
24.09.2020 16:00:00 15,0 4,6 18 10 40 21 Z 1002,7 20
24.09.2020 15:00:00 14,6 4,8 22 12 40 21 ZW 1003,7 20
24.09.2020 14:00:00 13,4 4,5 18 10 - - ZZW 1004,5 20
24.09.2020 13:00:00 11,8 5,3 18 10 40 21 ZZW 1005,2 20
24.09.2020 12:00:00 11,9 6,1 14 8 36 19 ZZW 1005,7 20
24.09.2020 11:00:00 11,1 6,7 14 8 - - ZZW 1005,7 20
24.09.2020 10:00:00 9,1 6,4 14 8 29 16 ZZW 1006,6 20
24.09.2020 09:00:00 9,1 7,2 11 6 29 16 ZW 1006,3 20
24.09.2020 08:00:00 8,4 7,5 14 8 - - WZW 1006,2 20
24.09.2020 07:00:00 8,7 7,6 18 10 40 21 WZW 1005,7 20
24.09.2020 06:00:00 9,1 8,1 18 10 36 19 W 1005,0 20
24.09.2020 05:00:00 9,2 8,3 14 8 - - W 1004,2 20
24.09.2020 04:00:00 10,3 9,2 18 10 54 29 W 1003,6 10
24.09.2020 03:00:00 13,6 12,8 18 10 36 19 ZW 1001,5 20
24.09.2020 02:00:00 13,6 12,6 18 10 - - ZZW 1001,5 20
24.09.2020 01:00:00 13,7 12,5 16 9 40 21 ZZW 1001,8 10
24.09.2020 00:00:00 15,3 10,8 14 8 29 16 Z 1001,2 20
23.09.2020 23:00:00 15,6 10,3 11 6 - - Z 1002,3 20
23.09.2020 22:00:00 15,3 10,6 11 6 25 14 Z 1003,2 20
23.09.2020 21:00:00 15,5 10,7 7 4 22 12 ZZW 1003,6 20
23.09.2020 20:00:00 16,1 10,6 7 4 - - ZZW 1003,8 20
23.09.2020 19:00:00 17,2 10,2 11 6 29 16 ZZW 1003,7 20
23.09.2020 18:00:00 18,2 10,4 14 8 36 19 ZW 1004,0 20
23.09.2020 17:00:00 18,5 9,8 22 12 - - ZW 1004,3 20
23.09.2020 16:00:00 18,7 10,3 14 8 36 19 ZW 1004,7 20
23.09.2020 15:00:00 19,0 10,3 14 8 36 19 ZW 1005,2 20
23.09.2020 14:00:00 17,8 10,5 14 8 - - ZW 1005,8 20
23.09.2020 13:00:00 18,0 11,1 18 10 32 18 ZW 1006,2 20
23.09.2020 12:00:00 17,2 10,6 14 8 29 16 ZW 1006,6 19
23.09.2020 11:00:00 15,3 8,2 11 6 - - ZZW 1007,3 20
23.09.2020 10:00:00 13,9 7,1 7 4 18 10 ZZW 1007,6 19
23.09.2020 09:00:00 10,4 8,1 4 2 4 2 N 1008,3 5
23.09.2020 08:00:00 5,5 5,0 4 2 - - N 1009,6 12
23.09.2020 07:00:00 5,0 4,4 4 2 4 2 N 1009,6 15
23.09.2020 06:00:00 6,4 5,4 0 0 0 0 N 1009,1 17
23.09.2020 05:00:00 6,5 5,5 4 2 - - N 1009,3 20
23.09.2020 04:00:00 8,0 6,4 4 2 0 0 N 1009,2 20
23.09.2020 03:00:00 8,6 6,6 4 2 4 2 N 1009,3 20
23.09.2020 02:00:00 8,1 5,8 4 2 - - N 1009,6 20
23.09.2020 01:00:00 8,1 5,7 4 2 4 2 N 1009,7 20
23.09.2020 00:00:00 9,0 5,9 7 4 7 4 ZZO 1009,7 20
22.09.2020 23:00:00 8,1 5,8 4 2 - - N 1010,2 20
22.09.2020 22:00:00 9,2 6,0 0 0 0 0 N 1010,2 20
22.09.2020 21:00:00 11,6 6,5 4 2 4 2 N 1009,5 20
22.09.2020 20:00:00 15,1 6,4 4 2 - - N 1008,7 20
22.09.2020 19:00:00 20,4 5,2 7 4 11 6 N 1007,3 20
22.09.2020 18:00:00 22,3 4,1 7 4 18 10 WZW 1007,2 20
22.09.2020 17:00:00 22,8 5,0 11 6 - - WZW 1007,7 20
22.09.2020 16:00:00 22,9 5,4 11 6 22 12 ZZW 1008,2 20
22.09.2020 15:00:00 23,2 5,0 11 6 25 14 ZW 1008,7 20
22.09.2020 14:00:00 22,3 5,5 11 6 - - ZW 1009,2 20
22.09.2020 13:00:00 22,0 6,5 7 4 18 10 ZW 1009,7 20
22.09.2020 12:00:00 21,2 7,4 4 2 11 6 N 1010,5 20
22.09.2020 11:00:00 19,2 8,4 4 2 - - N 1011,2 20
22.09.2020 10:00:00 13,4 8,6 4 2 4 2 N 1012,7 20
22.09.2020 09:00:00 8,3 6,0 4 2 4 2 N 1014,1 20
22.09.2020 08:00:00 3,4 3,2 4 2 - - N 1015,2 19
22.09.2020 07:00:00 3,2 2,8 4 2 4 2 N 1015,5 19
22.09.2020 06:00:00 3,5 3,0 4 2 7 4 N 1015,6 15
22.09.2020 05:00:00 4,0 3,4 4 2 - - N 1015,7 14
22.09.2020 04:00:00 4,1 3,2 4 2 7 4 N 1016,1 18
22.09.2020 03:00:00 5,2 4,7 4 2 4 2 N 1016,2 20
22.09.2020 02:00:00 5,6 4,9 4 2 - - N 1016,2 20
22.09.2020 01:00:00 6,5 5,5 4 2 4 2 N 1016,3 20
22.09.2020 00:00:00 6,5 5,2 4 2 4 2 N 1016,7 20
21.09.2020 23:00:00 8,1 6,3 4 2 - - N 1016,7 20
21.09.2020 22:00:00 9,7 6,6 4 2 7 4 N 1016,2 20
21.09.2020 21:00:00 12,3 6,9 4 2 4 2 N 1015,8 20
21.09.2020 20:00:00 14,7 7,3 4 2 - - N 1015,1 20
21.09.2020 19:00:00 18,9 6,7 7 4 14 8 NNW 1014,1 20
21.09.2020 18:00:00 20,8 6,6 11 6 14 8 NNW 1013,7 20
21.09.2020 17:00:00 21,7 6,3 11 6 - - NNW 1013,7 20
21.09.2020 16:00:00 22,2 6,4 11 6 22 12 NNW 1013,7 20
21.09.2020 15:00:00 22,6 3,0 7 4 14 8 N 1013,7 20
21.09.2020 14:00:00 22,5 3,4 4 2 - - N 1014,2 20
21.09.2020 13:00:00 21,8 2,7 4 2 11 6 N 1014,5 20
21.09.2020 12:00:00 20,9 4,3 4 2 11 6 N 1014,7 20
21.09.2020 11:00:00 19,1 4,7 4 2 - - N 1015,3 20
21.09.2020 10:00:00 14,3 9,9 4 2 4 2 N 1016,7 20
21.09.2020 09:00:00 7,9 5,4 4 2 7 4 N 1018,2 20
21.09.2020 08:00:00 2,9 2,5 4 2 - - N 1019,3 20
21.09.2020 07:00:00 2,9 2,8 7 4 7 4 ZO 1019,2 20
21.09.2020 06:00:00 2,4 1,7 4 2 4 2 N 1019,2 20
21.09.2020 05:00:00 2,8 2,1 4 2 - - N 1019,2 20
21.09.2020 04:00:00 3,3 2,7 4 2 4 2 N 1019,3 20
21.09.2020 03:00:00 3,4 2,4 4 2 4 2 N 1019,6 20
21.09.2020 02:00:00 4,5 3,5 4 2 - - N 1019,6 20
21.09.2020 01:00:00 5,0 3,6 4 2 7 4 N 1019,6 20
21.09.2020 00:00:00 6,5 4,4 4 2 4 2 N 1019,3 20
20.09.2020 23:00:00 8,3 4,8 4 2 - - N 1018,8 20
20.09.2020 22:00:00 9,9 5,0 4 2 11 6 N 1018,5 20
20.09.2020 21:00:00 12,2 5,4 7 4 14 8 ONO 1017,7 20
20.09.2020 20:00:00 13,3 5,4 4 2 - - N 1017,1 20
20.09.2020 19:00:00 17,1 4,6 7 4 11 6 NO 1016,0 20
20.09.2020 18:00:00 19,2 3,4 4 2 18 10 N 1015,3 20
20.09.2020 17:00:00 20,7 2,7 14 8 - - NNO 1015,1 20
20.09.2020 16:00:00 23,3 3,6 11 6 25 14 NO 1014,3 20
20.09.2020 15:00:00 22,8 3,5 11 6 18 10 N 1014,6 20
20.09.2020 14:00:00 22,2 4,1 4 2 - - N 1015,0 20
20.09.2020 13:00:00 21,6 5,9 7 4 22 12 N 1015,2 20
20.09.2020 12:00:00 20,3 5,5 11 6 18 10 O 1015,8 20
20.09.2020 11:00:00 17,5 8,5 4 2 - - N 1016,5 20
20.09.2020 10:00:00 15,1 8,9 4 2 4 2 N 1016,6 20
20.09.2020 09:00:00 9,3 6,0 0 0 4 2 N 1017,7 20
20.09.2020 08:00:00 5,6 5,0 4 2 - - N 1018,6 20
20.09.2020 07:00:00 6,3 5,3 7 4 7 4 ZO 1018,6 20
20.09.2020 06:00:00 6,7 5,7 0 0 4 2 N 1018,3 20
20.09.2020 05:00:00 7,5 6,0 4 2 - - N 1018,5 20
20.09.2020 04:00:00 7,8 6,4 4 2 4 2 N 1018,5 20
20.09.2020 03:00:00 8,2 6,7 4 2 4 2 N 1018,3 20
20.09.2020 02:00:00 8,8 7,1 4 2 - - N 1018,2 20
20.09.2020 01:00:00 9,8 7,4 4 2 4 2 N 1018,3 20
20.09.2020 00:00:00 10,8 7,7 4 2 0 0 N 1018,3 20
19.09.2020 23:00:00 12,3 7,7 4 2 - - N 1018,0 20
19.09.2020 22:00:00 14,5 7,3 4 2 7 4 N 1017,2 20
19.09.2020 21:00:00 16,0 7,7 5 3 11 6 ONO 1016,7 10
19.09.2020 20:00:00 18,3 8,5 7 4 - - O 1015,7 20
19.09.2020 19:00:00 21,1 9,5 7 4 18 10 NO 1015,2 20
19.09.2020 18:00:00 23,3 10,4 11 6 18 10 NO 1014,8 20
19.09.2020 17:00:00 24,2 12,9 4 2 - - N 1014,8 20

tt = temperatuur
td = dauwpunt
ff = windsnelheid
fx = windstoten
dd = windrichting
ppp = luchtdruk
vv = zicht

Weerstations in de omgeving